Total_Precipitation_Accumulation
0.93 0.88 0.84 0.86 0.83 0.75 0.72 0.72 0.69 0.63 0.59 0.60 0.58 0.53 0.52 0.45 0.38 0.36 0.32 0.33 0.30 0.32 0.49 0.67 0.84 1.08 1.30 1.46 1.67 1.71 1.46 1.29 1.15 1.02 1.02 1.13 1.22 1.25 1.29 1.37 1.49 1.47 1.34
1.01 0.93 0.87 0.85 0.84 0.80 0.76 0.70 0.66 0.60 0.53 0.48 0.44 0.43 0.47 0.47 0.45 0.42 0.37 0.35 0.33 0.31 0.39 0.57 0.75 0.97 1.25 1.51 1.75 1.99 1.82 1.62 1.43 1.24 1.08 1.09 1.17 1.24 1.26 1.34 1.46 1.62 1.63
1.13 1.07 0.99 0.91 0.84 0.79 0.78 0.78 0.73 0.65 0.58 0.51 0.45 0.42 0.40 0.39 0.40 0.42 0.40 0.38 0.38 0.35 0.35 0.46 0.64 0.83 1.09 1.42 1.73 2.00 2.17 1.99 1.79 1.61 1.36 1.17 1.18 1.27 1.35 1.44 1.53 1.66 1.76
1.23 1.20 1.14 1.09 1.03 0.93 0.84 0.80 0.75 0.69 0.62 0.57 0.51 0.46 0.44 0.40 0.36 0.36 0.36 0.37 0.39 0.39 0.38 0.43 0.54 0.75 0.97 1.19 1.50 1.82 2.21 2.24 2.19 2.04 1.88 1.58 1.36 1.37 1.48 1.56 1.68 1.74 1.75
1.37 1.28 1.22 1.21 1.25 1.20 1.04 0.89 0.81 0.71 0.65 0.58 0.55 0.53 0.49 0.45 0.42 0.41 0.35 0.31 0.32 0.35 0.40 0.42 0.49 0.62 0.78 0.99 1.27 1.60 1.96 2.30 2.41 2.40 2.35 2.15 1.80 1.53 1.55 1.66 1.71 1.80 1.89
1.53 1.44 1.32 1.23 1.27 1.33 1.29 1.12 0.93 0.82 0.73 0.65 0.62 0.61 0.57 0.53 0.47 0.43 0.40 0.36 0.33 0.33 0.39 0.43 0.45 0.51 0.62 0.78 1.02 1.35 1.72 2.15 2.52 2.61 2.58 2.58 2.43 2.05 1.83 1.83 1.84 1.94 2.09
1.76 1.69 1.52 1.42 1.35 1.30 1.26 1.23 1.14 1.03 0.91 0.80 0.78 0.76 0.68 0.60 0.57 0.49 0.41 0.37 0.35 0.32 0.34 0.42 0.46 0.47 0.55 0.68 0.82 1.00 1.35 1.81 2.34 2.86 2.87 2.79 2.88 2.71 2.36 2.19 2.15 2.22 2.40
1.86 1.98 1.86 1.66 1.52 1.42 1.37 1.31 1.24 1.21 1.13 0.98 0.88 0.90 0.88 0.82 0.67 0.55 0.47 0.39 0.36 0.35 0.35 0.37 0.44 0.49 0.52 0.59 0.65 0.82 1.03 1.39 1.89 2.63 3.30 3.34 3.36 3.46 3.08 2.67 2.52 2.55 2.66
1.62 1.70 1.82 1.69 1.64 1.56 1.49 1.40 1.30 1.26 1.25 1.14 0.97 1.04 1.12 0.97 0.72 0.60 0.54 0.48 0.41 0.38 0.36 0.36 0.39 0.46 0.50 0.58 0.61 0.67 0.81 1.07 1.45 2.06 2.93 3.67 3.85 4.02 3.94 3.33 3.00 2.93 2.93
1.55 1.55 1.64 1.70 1.56 1.47 1.40 1.37 1.33 1.23 1.25 1.25 1.13 0.99 0.93 0.91 0.93 0.78 0.58 0.55 0.56 0.50 0.43 0.38 0.36 0.41 0.49 0.58 0.68 0.70 0.74 0.87 1.15 1.59 2.31 3.25 4.03 4.40 4.64 4.27 3.63 3.39 3.30
1.59 1.61 1.59 1.65 1.68 1.53 1.35 1.28 1.32 1.32 1.27 1.22 1.15 1.04 0.91 0.78 0.76 0.87 0.72 0.62 0.66 0.65 0.61 0.54 0.48 0.48 0.51 0.61 0.67 0.74 0.84 0.91 1.19 1.42 1.80 2.46 3.51 4.38 4.98 5.07 4.50 3.86 3.54
1.57 1.63 1.62 1.58 1.59 1.62 1.55 1.36 1.28 1.31 1.30 1.25 1.19 1.11 1.04 0.99 0.84 0.82 0.77 0.61 0.60 0.60 0.65 0.70 0.69 0.66 0.66 0.70 0.80 0.97 0.95 1.03 1.26 1.36 1.43 1.73 2.45 3.46 4.37 4.96 4.78 4.14 3.74
1.51 1.53 1.58 1.57 1.52 1.51 1.53 1.48 1.38 1.33 1.30 1.31 1.27 1.15 1.06 0.99 0.92 0.94 0.98 0.81 0.66 0.58 0.59 0.66 0.71 0.75 0.78 0.80 0.93 1.04 1.02 1.11 1.20 1.29 1.29 1.38 1.73 2.43 3.33 4.29 4.76 4.43 3.90
1.40 1.38 1.40 1.41 1.37 1.32 1.34 1.40 1.36 1.28 1.28 1.32 1.30 1.26 1.16 1.01 0.97 1.05 1.15 1.21 1.07 0.75 0.61 0.62 0.64 0.71 0.81 0.88 1.01 1.14 1.09 1.14 1.17 1.26 1.30 1.26 1.35 1.63 2.31 3.35 4.62 5.07 4.43
1.36 1.39 1.38 1.34 1.23 1.18 1.17 1.18 1.21 1.18 1.20 1.22 1.25 1.27 1.25 1.12 1.07 1.06 1.11 1.31 1.56 1.34 0.82 0.61 0.63 0.71 0.78 0.87 1.06 0.97 0.91 0.97 1.01 1.05 1.15 1.19 1.22 1.34 1.63 2.22 3.17 4.54 5.20
1.31 1.36 1.38 1.36 1.26 1.15 1.13 1.13 1.08 1.04 1.09 1.11 1.13 1.21 1.22 1.16 1.09 1.06 1.12 1.16 1.29 1.46 1.17 0.68 0.62 0.68 0.81 0.84 0.93 0.86 0.88 1.03 1.02 1.02 1.07 1.12 1.18 1.22 1.37 1.65 2.14 2.99 4.21
1.21 1.21 1.25 1.29 1.26 1.18 1.13 1.17 1.13 1.06 1.07 1.07 1.08 1.10 1.11 1.13 1.15 1.09 1.09 1.11 1.11 1.17 1.17 0.72 0.58 0.62 0.80 0.89 0.85 0.80 0.84 0.89 0.91 1.01 1.03 1.05 1.11 1.19 1.35 1.51 1.78 2.22 2.92
1.18 1.19 1.17 1.20 1.19 1.19 1.17 1.17 1.13 1.07 1.06 1.04 1.03 1.02 1.01 1.03 1.10 1.06 1.04 1.03 0.99 0.95 0.99 0.82 0.59 0.58 0.67 0.76 0.88 0.94 0.91 0.89 0.86 0.95 0.98 1.06 1.17 1.20 1.28 1.43 1.64 1.94 2.32
1.14 1.15 1.16 1.17 1.19 1.21 1.18 1.11 1.11 1.05 1.00 1.01 1.02 1.02 0.99 1.03 1.08 1.03 1.04 0.99 0.90 0.83 0.85 0.87 0.69 0.60 0.64 0.69 0.87 1.02 1.02 1.01 0.96 0.97 1.00 1.07 1.15 1.23 1.28 1.36 1.53 1.74 1.94
1.16 1.09 1.07 1.11 1.20 1.34 1.36 1.28 1.30 1.18 1.05 1.00 0.95 0.93 0.97 1.08 1.10 1.11 1.14 1.02 0.95 0.97 0.97 1.02 0.88 0.73 0.75 0.77 0.95 1.17 1.26 1.21 1.16 1.04 1.07 1.11 1.21 1.31 1.31 1.29 1.31 1.38 1.51
1.13 1.05 1.01 1.04 1.11 1.45 1.82 1.80 1.71 1.46 1.16 0.99 0.91 0.90 0.96 1.10 1.16 1.31 1.43 1.30 1.26 1.35 1.30 1.31 1.20 1.08 1.02 1.05 1.13 1.17 1.32 1.35 1.35 1.21 1.12 1.05 1.09 1.11 1.18 1.25 1.27 1.28 1.34
1.18 1.08 1.01 0.99 1.02 1.28 1.90 2.03 1.73 1.31 1.12 1.00 0.95 0.90 0.90 1.01 1.05 1.16 1.34 1.43 1.48 1.59 1.66 1.64 1.56 1.42 1.18 1.10 1.14 1.28 1.37 1.54 1.60 1.31 1.23 1.18 1.13 1.21 1.16 1.16 1.31 1.30 1.31
1.23 1.23 1.09 0.98 0.95 1.10 1.69 1.83 1.55 1.19 1.04 0.98 0.92 0.91 0.91 0.96 1.02 1.01 1.11 1.15 1.18 1.33 1.56 1.68 1.74 1.38 1.18 1.13 1.33 1.54 1.51 1.59 1.54 1.43 1.54 1.49 1.22 1.24 1.18 1.27 1.44 1.34 1.30
1.13 1.19 1.16 1.07 0.98 1.02 1.51 1.67 1.44 1.16 1.04 0.97 0.89 0.89 0.88 0.89 0.99 1.19 1.17 1.11 1.01 1.03 1.23 1.44 1.69 1.52 1.35 1.39 1.70 2.02 2.12 2.00 1.61 1.40 1.55 1.74 1.33 1.23 1.25 1.34 1.48 1.38 1.27
1.02 1.05 1.07 1.07 1.02 0.98 1.28 1.54 1.38 1.11 1.05 0.98 0.88 0.87 0.88 0.86 1.07 1.34 1.29 1.14 0.96 0.87 0.99 1.30 1.61 1.74 1.78 1.91 2.14 2.45 2.64 2.46 2.01 1.48 1.45 1.70 1.53 1.36 1.47 1.63 1.67 1.54 1.29
0.97 0.97 0.99 1.01 0.94 0.87 1.09 1.36 1.36 1.09 1.02 0.97 0.92 0.87 0.99 1.07 1.22 1.35 1.24 1.21 1.28 1.05 0.94 0.99 1.07 1.20 1.30 1.46 1.82 2.11 2.41 2.49 2.15 1.93 1.59 1.67 1.77 1.76 1.99 1.86 1.73 1.51 1.29